Regional Weather Roundup
Issued by NWS State College, PA

Home | Current Version | Previous Version | Text Only | Print | Product List | Glossary Off
Versions: 1 2 3 4 5 6 7 8 9 10 11 12 13 14 15 16 17 18 19 20 21 22 23 24 25 26 27 28 29 30 31 32 33 34 35 36 37 38 39 40 41 42 43 44 45 46 47 48 49 50

000
ASUS41 KCTP 021310
RWRCTP

REGIONAL WEATHER ROUNDUP
NATIONAL WEATHER SERVICE STATE COLLEGE PA
900 AM EDT SUN AUG 02 2015

Note: "fair" indicates few or no clouds below 12,000 feet with no
significant weather and/or obstructions to visibility.

* = STATION THAT DOES NOT REPORT PRECIPITATION /E.G. RAIN...SNOW...ETC/
    THUNDER OR FOG.

PAZ002>004-007>009-013>016-020>023-029>032-021400-
WESTERN PENNSYLVANIA

CITY           SKY/WX    TMP DP  RH WIND       PRES   REMARKS
ERIE           SUNNY     73  59  61 SW8       29.91R
MEADVILLE      SUNNY     67  56  67 SW5       29.95S
FRANKLIN*      MOSUNNY   66  55  68 SW6       29.97S
NEW CASTLE     FAIR      72  63  73 CALM      29.96S
BEAVER COUNTY  NOT AVBL
BUTLER*        MOSUNNY   70  57  64 W6        29.98S
PITTSBURGH INT MOSUNNY   70  58  65 W5        29.96S
PITTSBURGH     PTSUNNY   68  55  63 S8        29.97R
INDIANA*       MOSUNNY   68  59  73 S8        30.01S
LATROBE        PTSUNNY   68  59  73 SW9       29.99S
WASHINGTON CO* NOT AVBL
$$

PAZ004>006-010>012-017>019-024>028-033>037-041-042-045-046-049>053-021400-
CENTRAL PENNSYLVANIA

CITY           SKY/WX    TMP DP  RH WIND       PRES   REMARKS
BRADFORD       SUNNY     66  54  65 W5        29.96S
DUBOIS         PTSUNNY   66  57  72 SW7       29.96S
CLEARFIELD     MOSUNNY   63  57  81 SW8       29.98R
JOHNSTOWN      CLOUDY    64  54  69 SW8       30.02R
ALTOONA        SUNNY     71  58  63 VRB5      30.00R
STATE COLLEGE  SUNNY     68  61  77 SW6       29.97R
WILLIAMSPORT   MOSUNNY   63  58  83 CALM      29.94R
SELINSGROVE    SUNNY     64  63  96 CALM      29.96R
FT INDIANTOWN  SUNNY     70  60  70 CALM      29.95
CAPITAL CITY   SUNNY     73  59  61 W6        29.95R
HARRISBURG     MOSUNNY   73  59  61 CALM      29.94S
YORK           SUNNY     73  64  73 CALM      29.96R
$$

PAZ038>040-043-044-047-048-054-055-060>062-067>071-021400-
EASTERN PENNSYLVANIA

CITY           SKY/WX    TMP DP  RH WIND       PRES   REMARKS
SCRANTON       SUNNY     68  59  73 CALM      29.94S
MOUNT POCONO   SUNNY     70  53  54 W5        29.98R
ALLENTOWN      SUNNY     72  60  66 CALM      29.95R
QUAKERTOWN*    SUNNY     73  61  64 NW3       29.96R
READING        SUNNY     74  58  57 CALM      29.94R
LANCASTER      SUNNY     72  61  68 NW3       29.96R
COATESVILLE    SUNNY     75  61  60 NW7       29.97R
POTTSTOWN      SUNNY     73  60  63 NW7       29.96R
BLUE BELL      SUNNY     75  61  60 CALM      29.93S
DOYLESTOWN     SUNNY     73  59  61 CALM      29.94R
WILLOW GROVE   NOT AVBL
NORTH PHILA    SUNNY     79  56  45 N3        29.95R
PHILADELPHIA   MOSUNNY   78  59  51 NE3       29.94R
$$


USA.gov is the U.S. government's official web portal to all federal, state and local government web resources and services.